Regional Weather Roundup
Issued by NWS

Home | Current Version | Previous Version | Graphics & Text | Print | Product List | Glossary On
Versions: 1 2 3 4 5 6 7 8 9 10 11 12 13 14 15 16 17 18 19 20 21 22 23 24 25 26 27 28 29 30 31 32 33 34 35 36 37 38 39 40 41 42 43 44 45 46 47 48 49 50
000
ASUS43 KMPX 060710
RWRMN
WEATHER ROUNDUP FOR MINNESOTA
NATIONAL WEATHER SERVICE TWIN CITIES/CHANHASSEN MN
200 AM CDT FRI MAY 06 2016


NOTE: "FAIR" INDICATES FEW OR NO CLOUDS BELOW 12,000 FEET WITH NO
SIGNIFICANT WEATHER AND/OR OBSTRUCTIONS TO VISIBILITY. N/A MEANS
CURRENT SKY AND/OR WEATHER CONDITIONS ARE NOT AVAILABLE.

MNZ060>063-068>070-060800-
   Twin Cities Metro

CITY           SKY/WX    TMP DP  RH WIND       PRES   REMARKS
TWIN CITIES    CLEAR     65  41  41 SW8       29.86F
ST PAUL        CLEAR     60  46  59 N3        29.86F
CRYSTAL        CLEAR     69  42  37 SW9       29.84F
BLAINE         CLEAR     68  43  40 SW7       29.85F
EDEN PRAIRIE   CLEAR     63  41  44 W9        29.86F
SOUTH ST PAUL  CLEAR     65  41  40 W8        29.86F
LAKE ELMO      FAIR      61  45  55 SW7       29.87S
$$
MNZ001>005-007-008-013>017-022>024-027-028-060800-
   Northwest Minnesota

CITY           SKY/WX    TMP DP  RH WIND       PRES   REMARKS
BEMIDJI        CLOUDY    67  40  38 SW6       29.78S
HALLOCK        CLEAR     66  34  30 SW9       29.66S
ROSEAU         CLEAR     68  43  40 SW8       29.68S
WARROAD        CLOUDY    70  43  37 SW6       29.68S
THIEF RVR FALL CLEAR     68  37  32 S15       29.74S
CROOKSTON      CLEAR     66  39  37 SW12      29.73S
FOSSTON        CLEAR     55  39  54 S8        29.78S
DETROIT LAKES  CLEAR     66  41  39 SW12      29.82S
MOORHEAD       CLEAR     61  43  51 S7        29.79S
PARK RAPIDS    CLOUDY    65  41  41 SW9       29.81S
MAHNOMEN       FAIR      61  42  49 S10       29.78S
$$
MNZ006-009>011-018-025>026-060800-
   North Central Minnesota

CITY           SKY/WX    TMP DP  RH WIND       PRES   REMARKS
BAUDETTE       MOCLDY    68  37  32 SW8       29.68S
FLAG ISLAND    PTCLDY    66  39  37 SW14      29.64S
INTL FALLS     CLEAR     61  40  45 SW5       29.70S
WASKISH        CLEAR     70  43  37 SW10      29.73S
BIG FORK       CLEAR     70  39  32 SW9       29.75S
LONGVILLE      CLEAR     66  39  37 SW7       29.80S
GRAND RAPIDS   CLEAR     70  39  32 SW7       29.80S
CRANE LAKE     PTCLDY    63  43  48 S5        29.72S
ORR            CLEAR     63  39  42 CALM      29.72S
COOK           CLEAR     64  43  45 SW6       29.75S
WALKER         FAIR      70  40  34 W12       29.79S
$$
MNZ012-019>021-037-060800-
   Northeast Minnesota

CITY           SKY/WX    TMP DP  RH WIND       PRES   REMARKS
DULUTH         PTCLDY    63  42  46 W13       29.78S
ELY            CLEAR     63  41  45 SW3       29.74S
HIBBING        CLEAR     47  42  83 CALM      29.77S
EVELETH        CLEAR     52  43  71 CALM      29.78S
DULUTH HARBOR  CLEAR     41  37  87 CALM      29.79S
TWO HARBORS    CLEAR     54  45  71 W3        29.75F
SILVER BAY     PTCLDY    45  37  76 CALM      29.74F
GRAND MARAIS     N/A     41  36  82 CALM      29.75F
G MARAIS ARPRT CLEAR     45  34  65 CALM      29.77F
$$
MNZ029>031-032-039>041-046>048-054>057-064-060800-
   West Central Minnesota

CITY           SKY/WX    TMP DP  RH WIND       PRES   REMARKS
FERGUS FALLS   CLEAR     63  45  51 S7        29.80S
WHEATON        CLEAR     64  45  48 S10       29.85R
MORRIS         CLEAR     57  45  62 S8        29.85S
ALEXANDRIA     CLEAR     63  44  50 SW10      29.88R
ELBOW LAKE     FAIR      57  44  60 S10       29.85S
WADENA         CLEAR     66  43  42 SW9       29.83S
GLENWOOD       CLEAR     57  45  62 SW7       29.88S
APPLETON       CLEAR     61  43  51 S6        29.86F
BENSON         CLEAR     63  43  48 SW10      29.87S
ORTONVILLE     CLEAR     55  45  67 S5        29.86S
MADISON        CLEAR     55  43  62 S6        29.87F
WILLMAR        FAIR      63  43  48 SW6       29.90S
$$
MNZ033>034-036-042>043-049>051-058-059-060800-
   Central Minnesota

CITY           SKY/WX    TMP DP  RH WIND       PRES   REMARKS
ST CLOUD       CLEAR     64  44  48 W9        29.85S
SAUK CENTRE      N/A     62  45  53 SW9       29.87S
PAYNESVILLE    CLEAR     63  42  45 SW9       29.89S
AITKIN         CLEAR     68  37  32 SW7       29.80S
PINE RIVER     PTCLDY    68  45  42 SW8       29.85R
BRAINERD       CLEAR     62  41  46 S5        29.83S
STAPLES        CLEAR     66  39  37 SW9       29.83S
LONG PRAIRIE   FAIR      61  45  55 SW8       29.87S
LITTLE FALLS   CLEAR     63  43  48 SW5       29.85S
LITCHFIELD     CLEAR     66  41  39 SW9       29.89S
BUFFALO        CLEAR     63  43  47 SW3       29.87F
MAPLE LAKE     CLEAR     65  46  50 SW7       29.87S
HUTCHINSON     CLEAR     66  44  43 SW8       29.90S
$$
MNZ037-044-045-052-053-060800-
   East Central Minnesota

CITY           SKY/WX    TMP DP  RH WIND       PRES   REMARKS
PRINCETON      CLEAR     64  45  48 SW5       29.85S
MORA           CLEAR     59  43  55 SW3       29.85S
CAMBRIDGE      CLEAR     70  48  46 SW5       29.82F
RUSH CITY      MOCLDY    65  45  48 W8        29.83F
MOOSE LAKE     CLEAR     68  41  37 W8        29.78F
HINCKLEY       CLOUDY    55  43  62 W6        29.81F
CLOQUET        CLEAR     70  37  30 W13G18    29.78F
MCGREGOR       CLEAR     68  41  37 W6        29.80F
$$
MNZ071>073-080-081-089-090-097-098-060800-
   Southwest Minnesota

CITY           SKY/WX    TMP DP  RH WIND       PRES   REMARKS
MONTEVIDEO     CLEAR     57  45  62 SW8       29.90F
GRANITE FALLS  CLEAR     55  42  63 S8        29.91S
CANBY          CLEAR     70  42  35 SW17G24   29.88S
REDWOOD FALLS  CLEAR     60  41  49 SW12      29.90S
OLIVIA         CLEAR     54  39  58 SW6       29.90S
PIPESTONE      CLEAR     55  43  62 SW9       29.93F
WINDOM         CLEAR     59  43  55 SW3       29.94S
WORTHINGTON    CLEAR     60  42  51 SW17      29.95S
JACKSON        CLEAR     59  37  44 SW10      29.95F
TRACY          CLEAR     62  43  51 SW16      29.91S
SLAYTON        CLEAR     58  42  53 SW15      29.94S
$$
MNZ065>067-074>077-082>085-091>093-060800-
   South Central Minnesota

CITY           SKY/WX    TMP DP  RH WIND       PRES   REMARKS
MANKATO        CLEAR     63  39  42 S5        29.92S
ST JAMES       CLEAR     52  39  62 CALM      29.93S
FAIRMONT       CLEAR     57  37  47 SW7       29.93F
GLENCOE        CLEAR     64  45  49 SW8       29.89S
FARIBAULT      CLEAR     57  45  62 S5        29.91F
OWATONNA       CLEAR     61  39  44 SW10      29.92S
WASECA         CLEAR     55  43  62 SW3       29.94S
ALBERT LEA     CLEAR     63  37  39 SW7       29.93F
$$
MNZ078>079-086>088-094>096-060800-
   Southeast Minnesota

CITY           SKY/WX    TMP DP  RH WIND       PRES   REMARKS
ROCHESTER      CLEAR     60  40  47 W15       29.92F
RED WING       PTCLDY    54  43  66 CALM      29.86F
STANTON        CLEAR     60  40  47 S5        29.88S
DODGE CENTER   CLEAR     54  39  58 SW12      29.92S
WINONA         PTCLDY    54  45  71 CALM      29.90F
AUSTIN         CLEAR     54  39  58 SW5       29.93F
PRESTON        CLEAR     52  37  56 SW10      29.93F
$$
ABBREVIATIONS USED IN REMARKS
   TC - TEMPERATURES IN CELSIUS
  WCI - WIND CHILL INDEX
   HX - HEAT INDEX
  VSB - VISIBILITY
$$




USA.gov is the U.S. government's official web portal to all federal, state and local government web resources and services.